User: anonymous   Login
Location: Caltech
(34.1382°N, 118.1253°W)
Time: 18:33:20
(UTC-07:00)
Language:

Cosmos 2360 Rocket - Orbit

View from above orbital plane
View from above orbital plane
View from above satellite
View from above satellite

Ground track
Ground track

The orbit data is extracted from the following two-line orbital elements,

1 25407U 98045B   15241.49216630 -.00000239  00000-0 -97410-4 0  9999
2 25407 071.0136 343.5126 0006163 142.5544 217.6010 14.15719980883093
Epoch (UTC): 29 August 2015 11:48:43
Eccentricity: 0.0006163
inclination: 71.0136°
perigee height: 835 km
apogee height: 844 km
right ascension of ascending node: 343.5126°
argument of perigee: 142.5544°
revolutions per day: 14.15719980
mean anomaly at epoch: 217.6010°
orbit number at epoch: 88309

The dashed part of the orbit path shows where the satellite is in the earth's shadow,  

DLR